<?xml version="1.0" encoding="UTF-8"?>
<gpx
version="1.1"
creator="Kashmir3D 9.350 - http://www.kashmir3d.com"
xmlns:xsi="http://www.w3.org/2001/XMLSchema-instance"
xmlns="http://www.topografix.com/GPX/1/1"
xmlns:kashmir3d="http://www.kashmir3d.com/namespace/kashmir3d"
xsi:schemaLocation="http://www.topografix.com/GPX/1/1 http://www.topografix.com/GPX/1/1/gpx.xsd
	http://www.kashmir3d.com/namespace/kashmir3d http://www.kashmir3d.com/namespace/kashmir3d.xsd">
<trk>
 <name>DAIMONJIYAMA.KML(大文字山)</name>
 <number>1</number>
 <extensions>
 <kashmir3d:line_color>0000ff</kashmir3d:line_color>
 <kashmir3d:line_size>3</kashmir3d:line_size>
 <kashmir3d:line_style>1</kashmir3d:line_style>
 <kashmir3d:icon>901001</kashmir3d:icon>
 </extensions>
<trkseg>
<trkpt lat="35.027190" lon="135.795668">
 <ele>78</ele>
 <time>2020-03-24T13:28:11Z</time>
</trkpt>
<trkpt lat="35.027190" lon="135.796547">
 <ele>82.7</ele>
 <time>2020-03-24T13:28:11Z</time>
</trkpt>
<trkpt lat="35.027190" lon="135.797180">
 <ele>86.6</ele>
 <time>2020-03-24T13:28:11Z</time>
</trkpt>
<trkpt lat="35.027207" lon="135.797266">
 <ele>87.2</ele>
 <time>2020-03-24T13:28:12Z</time>
</trkpt>
<trkpt lat="35.027507" lon="135.797266">
 <ele>88.8</ele>
 <time>2020-03-24T13:28:12Z</time>
</trkpt>
<trkpt lat="35.027670" lon="135.797277">
 <ele>89.4</ele>
 <time>2020-03-24T13:28:12Z</time>
</trkpt>
<trkpt lat="35.027739" lon="135.797459">
 <ele>91.2</ele>
 <time>2020-03-24T13:28:12Z</time>
</trkpt>
<trkpt lat="35.027799" lon="135.797631">
 <ele>92.2</ele>
 <time>2020-03-24T13:28:12Z</time>
</trkpt>
<trkpt lat="35.027851" lon="135.797706">
 <ele>92.7</ele>
 <time>2020-03-24T13:28:12Z</time>
</trkpt>
<trkpt lat="35.027851" lon="135.797770">
 <ele>93.2</ele>
 <time>2020-03-24T13:28:12Z</time>
</trkpt>
<trkpt lat="35.027825" lon="135.797792">
 <ele>93.2</ele>
 <time>2020-03-24T13:28:12Z</time>
</trkpt>
<trkpt lat="35.027825" lon="135.797899">
 <ele>94.9</ele>
 <time>2020-03-24T13:28:12Z</time>
</trkpt>
<trkpt lat="35.027834" lon="135.797985">
 <ele>95.6</ele>
 <time>2020-03-24T13:28:12Z</time>
</trkpt>
<trkpt lat="35.027919" lon="135.798071">
 <ele>97.2</ele>
 <time>2020-03-24T13:28:13Z</time>
</trkpt>
<trkpt lat="35.027979" lon="135.798125">
 <ele>98.9</ele>
 <time>2020-03-24T13:28:13Z</time>
</trkpt>
<trkpt lat="35.027988" lon="135.798167">
 <ele>98</ele>
 <time>2020-03-24T13:28:13Z</time>
</trkpt>
<trkpt lat="35.027988" lon="135.798200">
 <ele>97.8</ele>
 <time>2020-03-24T13:28:13Z</time>
</trkpt>
<trkpt lat="35.027971" lon="135.798253">
 <ele>98.1</ele>
 <time>2020-03-24T13:28:13Z</time>
</trkpt>
<trkpt lat="35.027971" lon="135.798479">
 <ele>99.8</ele>
 <time>2020-03-24T13:28:13Z</time>
</trkpt>
<trkpt lat="35.027979" lon="135.798575">
 <ele>100.8</ele>
 <time>2020-03-24T13:28:13Z</time>
</trkpt>
<trkpt lat="35.027979" lon="135.798672">
 <ele>101.7</ele>
 <time>2020-03-24T13:28:13Z</time>
</trkpt>
<trkpt lat="35.027997" lon="135.798779">
 <ele>103.5</ele>
 <time>2020-03-24T13:28:13Z</time>
</trkpt>
<trkpt lat="35.027997" lon="135.798854">
 <ele>104.1</ele>
 <time>2020-03-24T13:28:14Z</time>
</trkpt>
<trkpt lat="35.027997" lon="135.798994">
 <ele>105.1</ele>
 <time>2020-03-24T13:28:14Z</time>
</trkpt>
<trkpt lat="35.027988" lon="135.799144">
 <ele>106.7</ele>
 <time>2020-03-24T13:28:14Z</time>
</trkpt>
<trkpt lat="35.027945" lon="135.799273">
 <ele>107.7</ele>
 <time>2020-03-24T13:28:14Z</time>
</trkpt>
<trkpt lat="35.027945" lon="135.799391">
 <ele>109.6</ele>
 <time>2020-03-24T13:28:14Z</time>
</trkpt>
<trkpt lat="35.027911" lon="135.799509">
 <ele>110.6</ele>
 <time>2020-03-24T13:28:14Z</time>
</trkpt>
<trkpt lat="35.027902" lon="135.799584">
 <ele>111.1</ele>
 <time>2020-03-24T13:28:14Z</time>
</trkpt>
<trkpt lat="35.027885" lon="135.799659">
 <ele>111</ele>
 <time>2020-03-24T13:28:14Z</time>
</trkpt>
<trkpt lat="35.027894" lon="135.799938">
 <ele>114.7</ele>
 <time>2020-03-24T13:28:14Z</time>
</trkpt>
<trkpt lat="35.027911" lon="135.800077">
 <ele>118.9</ele>
 <time>2020-03-24T13:28:15Z</time>
</trkpt>
<trkpt lat="35.027902" lon="135.800163">
 <ele>120.6</ele>
 <time>2020-03-24T13:28:15Z</time>
</trkpt>
<trkpt lat="35.027919" lon="135.800302">
 <ele>123.6</ele>
 <time>2020-03-24T13:28:15Z</time>
</trkpt>
<trkpt lat="35.027945" lon="135.800431">
 <ele>124.9</ele>
 <time>2020-03-24T13:28:15Z</time>
</trkpt>
<trkpt lat="35.027945" lon="135.800506">
 <ele>126.3</ele>
 <time>2020-03-24T13:28:15Z</time>
</trkpt>
<trkpt lat="35.027962" lon="135.800592">
 <ele>127</ele>
 <time>2020-03-24T13:28:15Z</time>
</trkpt>
<trkpt lat="35.027954" lon="135.800732">
 <ele>129.8</ele>
 <time>2020-03-24T13:28:15Z</time>
</trkpt>
<trkpt lat="35.027988" lon="135.800828">
 <ele>130.6</ele>
 <time>2020-03-24T13:28:15Z</time>
</trkpt>
<trkpt lat="35.028014" lon="135.800946">
 <ele>132.5</ele>
 <time>2020-03-24T13:28:16Z</time>
</trkpt>
<trkpt lat="35.028031" lon="135.801021">
 <ele>133.9</ele>
 <time>2020-03-24T13:28:16Z</time>
</trkpt>
<trkpt lat="35.028031" lon="135.801161">
 <ele>135.7</ele>
 <time>2020-03-24T13:28:16Z</time>
</trkpt>
<trkpt lat="35.028031" lon="135.801236">
 <ele>137.1</ele>
 <time>2020-03-24T13:28:16Z</time>
</trkpt>
<trkpt lat="35.027971" lon="135.801461">
 <ele>142.3</ele>
 <time>2020-03-24T13:28:16Z</time>
</trkpt>
<trkpt lat="35.027902" lon="135.801633">
 <ele>145.7</ele>
 <time>2020-03-24T13:28:16Z</time>
</trkpt>
<trkpt lat="35.027816" lon="135.801805">
 <ele>148.3</ele>
 <time>2020-03-24T13:28:16Z</time>
</trkpt>
<trkpt lat="35.027748" lon="135.801933">
 <ele>148.9</ele>
 <time>2020-03-24T13:28:16Z</time>
</trkpt>
<trkpt lat="35.027619" lon="135.801933">
 <ele>151</ele>
 <time>2020-03-24T13:28:17Z</time>
</trkpt>
<trkpt lat="35.027473" lon="135.801933">
 <ele>152.7</ele>
 <time>2020-03-24T13:28:17Z</time>
</trkpt>
<trkpt lat="35.027396" lon="135.801933">
 <ele>153.4</ele>
 <time>2020-03-24T13:28:17Z</time>
</trkpt>
<trkpt lat="35.027121" lon="135.802201">
 <ele>160.2</ele>
 <time>2020-03-24T13:28:17Z</time>
</trkpt>
<trkpt lat="35.026967" lon="135.802362">
 <ele>166.4</ele>
 <time>2020-03-24T13:28:17Z</time>
</trkpt>
<trkpt lat="35.026864" lon="135.802427">
 <ele>168.8</ele>
 <time>2020-03-24T13:28:17Z</time>
</trkpt>
<trkpt lat="35.026812" lon="135.802427">
 <ele>169.4</ele>
 <time>2020-03-24T13:28:17Z</time>
</trkpt>
<trkpt lat="35.026769" lon="135.802352">
 <ele>170.7</ele>
 <time>2020-03-24T13:28:18Z</time>
</trkpt>
<trkpt lat="35.026752" lon="135.802244">
 <ele>172.5</ele>
 <time>2020-03-24T13:28:18Z</time>
</trkpt>
<trkpt lat="35.026675" lon="135.802212">
 <ele>175.5</ele>
 <time>2020-03-24T13:28:18Z</time>
</trkpt>
<trkpt lat="35.026632" lon="135.802287">
 <ele>176.9</ele>
 <time>2020-03-24T13:28:18Z</time>
</trkpt>
<trkpt lat="35.026563" lon="135.802330">
 <ele>179.8</ele>
 <time>2020-03-24T13:28:18Z</time>
</trkpt>
<trkpt lat="35.026435" lon="135.802352">
 <ele>185.4</ele>
 <time>2020-03-24T13:28:18Z</time>
</trkpt>
<trkpt lat="35.026246" lon="135.802384">
 <ele>190</ele>
 <time>2020-03-24T13:28:18Z</time>
</trkpt>
<trkpt lat="35.026031" lon="135.802459">
 <ele>194.2</ele>
 <time>2020-03-24T13:28:18Z</time>
</trkpt>
<trkpt lat="35.025851" lon="135.802534">
 <ele>199.3</ele>
 <time>2020-03-24T13:28:19Z</time>
</trkpt>
<trkpt lat="35.025516" lon="135.802942">
 <ele>218.2</ele>
 <time>2020-03-24T13:28:19Z</time>
</trkpt>
<trkpt lat="35.025396" lon="135.803103">
 <ele>226.8</ele>
 <time>2020-03-24T13:28:19Z</time>
</trkpt>
<trkpt lat="35.025250" lon="135.803178">
 <ele>233.2</ele>
 <time>2020-03-24T13:28:19Z</time>
</trkpt>
<trkpt lat="35.025147" lon="135.803210">
 <ele>236.2</ele>
 <time>2020-03-24T13:28:19Z</time>
</trkpt>
<trkpt lat="35.024907" lon="135.803242">
 <ele>240.8</ele>
 <time>2020-03-24T13:28:19Z</time>
</trkpt>
<trkpt lat="35.024701" lon="135.803199">
 <ele>244.9</ele>
 <time>2020-03-24T13:28:19Z</time>
</trkpt>
<trkpt lat="35.024512" lon="135.803167">
 <ele>251.6</ele>
 <time>2020-03-24T13:28:19Z</time>
</trkpt>
<trkpt lat="35.024366" lon="135.803071">
 <ele>253.1</ele>
 <time>2020-03-24T13:28:20Z</time>
</trkpt>
<trkpt lat="35.024263" lon="135.803028">
 <ele>254.6</ele>
 <time>2020-03-24T13:28:20Z</time>
</trkpt>
<trkpt lat="35.024117" lon="135.803017">
 <ele>257.1</ele>
 <time>2020-03-24T13:28:20Z</time>
</trkpt>
<trkpt lat="35.024212" lon="135.803167">
 <ele>258.3</ele>
 <time>2020-03-24T13:28:20Z</time>
</trkpt>
<trkpt lat="35.024297" lon="135.803317">
 <ele>260.3</ele>
 <time>2020-03-24T13:28:20Z</time>
</trkpt>
<trkpt lat="35.024469" lon="135.803510">
 <ele>264.9</ele>
 <time>2020-03-24T13:28:20Z</time>
</trkpt>
<trkpt lat="35.024598" lon="135.803650">
 <ele>267.4</ele>
 <time>2020-03-24T13:28:20Z</time>
</trkpt>
<trkpt lat="35.024709" lon="135.803736">
 <ele>267.7</ele>
 <time>2020-03-24T13:28:20Z</time>
</trkpt>
<trkpt lat="35.024787" lon="135.803811">
 <ele>267.6</ele>
 <time>2020-03-24T13:28:21Z</time>
</trkpt>
<trkpt lat="35.024864" lon="135.803907">
 <ele>265.9</ele>
 <time>2020-03-24T13:28:21Z</time>
</trkpt>
<trkpt lat="35.024898" lon="135.803993">
 <ele>264.6</ele>
 <time>2020-03-24T13:28:21Z</time>
</trkpt>
<trkpt lat="35.024890" lon="135.804090">
 <ele>264.9</ele>
 <time>2020-03-24T13:28:21Z</time>
</trkpt>
<trkpt lat="35.024830" lon="135.804133">
 <ele>269.7</ele>
 <time>2020-03-24T13:28:21Z</time>
</trkpt>
<trkpt lat="35.024701" lon="135.804133">
 <ele>276.1</ele>
 <time>2020-03-24T13:28:21Z</time>
</trkpt>
<trkpt lat="35.024598" lon="135.804111">
 <ele>282.3</ele>
 <time>2020-03-24T13:28:21Z</time>
</trkpt>
<trkpt lat="35.024469" lon="135.804090">
 <ele>289.2</ele>
 <time>2020-03-24T13:28:21Z</time>
</trkpt>
<trkpt lat="35.024246" lon="135.804100">
 <ele>297</ele>
 <time>2020-03-24T13:28:22Z</time>
</trkpt>
<trkpt lat="35.024126" lon="135.804100">
 <ele>300.3</ele>
 <time>2020-03-24T13:28:22Z</time>
</trkpt>
<trkpt lat="35.024048" lon="135.804143">
 <ele>302.8</ele>
 <time>2020-03-24T13:28:22Z</time>
</trkpt>
<trkpt lat="35.023980" lon="135.804261">
 <ele>308.9</ele>
 <time>2020-03-24T13:28:22Z</time>
</trkpt>
<trkpt lat="35.023903" lon="135.804412">
 <ele>314.6</ele>
 <time>2020-03-24T13:28:22Z</time>
</trkpt>
<trkpt lat="35.023791" lon="135.804508">
 <ele>319.1</ele>
 <time>2020-03-24T13:28:22Z</time>
</trkpt>
<trkpt lat="35.023688" lon="135.804562">
 <ele>322</ele>
 <time>2020-03-24T13:28:22Z</time>
</trkpt>
<trkpt lat="35.023576" lon="135.804615">
 <ele>324.5</ele>
 <time>2020-03-24T13:28:23Z</time>
</trkpt>
<trkpt lat="35.023491" lon="135.804637">
 <ele>327.6</ele>
 <time>2020-03-24T13:28:23Z</time>
</trkpt>
<trkpt lat="35.023362" lon="135.804626">
 <ele>330.6</ele>
 <time>2020-03-24T13:28:23Z</time>
</trkpt>
<trkpt lat="35.023285" lon="135.804615">
 <ele>332</ele>
 <time>2020-03-24T13:28:23Z</time>
</trkpt>
<trkpt lat="35.023130" lon="135.804379">
 <ele>334</ele>
 <time>2020-03-24T13:28:23Z</time>
</trkpt>
<trkpt lat="35.023044" lon="135.804337">
 <ele>334.5</ele>
 <time>2020-03-24T13:28:23Z</time>
</trkpt>
<trkpt lat="35.022907" lon="135.804594">
 <ele>350.5</ele>
 <time>2020-03-24T13:28:23Z</time>
</trkpt>
<trkpt lat="35.022812" lon="135.804766">
 <ele>359.2</ele>
 <time>2020-03-24T13:28:23Z</time>
</trkpt>
<trkpt lat="35.022752" lon="135.804905">
 <ele>362.5</ele>
 <time>2020-03-24T13:28:24Z</time>
</trkpt>
<trkpt lat="35.022770" lon="135.805002">
 <ele>363.7</ele>
 <time>2020-03-24T13:28:24Z</time>
</trkpt>
<trkpt lat="35.022744" lon="135.805066">
 <ele>365.2</ele>
 <time>2020-03-24T13:28:24Z</time>
</trkpt>
<trkpt lat="35.022684" lon="135.805195">
 <ele>368</ele>
 <time>2020-03-24T13:28:24Z</time>
</trkpt>
<trkpt lat="35.022624" lon="135.805281">
 <ele>370.5</ele>
 <time>2020-03-24T13:28:24Z</time>
</trkpt>
<trkpt lat="35.022564" lon="135.805388">
 <ele>373</ele>
 <time>2020-03-24T13:28:24Z</time>
</trkpt>
<trkpt lat="35.022564" lon="135.805485">
 <ele>376</ele>
 <time>2020-03-24T13:28:24Z</time>
</trkpt>
<trkpt lat="35.022555" lon="135.805549">
 <ele>377</ele>
 <time>2020-03-24T13:28:24Z</time>
</trkpt>
<trkpt lat="35.022546" lon="135.805656">
 <ele>380.2</ele>
 <time>2020-03-24T13:28:25Z</time>
</trkpt>
<trkpt lat="35.022503" lon="135.805763">
 <ele>381.5</ele>
 <time>2020-03-24T13:28:25Z</time>
</trkpt>
<trkpt lat="35.022426" lon="135.805924">
 <ele>384</ele>
 <time>2020-03-24T13:28:25Z</time>
</trkpt>
<trkpt lat="35.022418" lon="135.806010">
 <ele>384.9</ele>
 <time>2020-03-24T13:28:25Z</time>
</trkpt>
<trkpt lat="35.022409" lon="135.806150">
 <ele>385.9</ele>
 <time>2020-03-24T13:28:25Z</time>
</trkpt>
<trkpt lat="35.022400" lon="135.806236">
 <ele>387.6</ele>
 <time>2020-03-24T13:28:25Z</time>
</trkpt>
<trkpt lat="35.022392" lon="135.806300">
 <ele>388.5</ele>
 <time>2020-03-24T13:28:25Z</time>
</trkpt>
<trkpt lat="35.022383" lon="135.806386">
 <ele>389.3</ele>
 <time>2020-03-24T13:28:25Z</time>
</trkpt>
<trkpt lat="35.022375" lon="135.806439">
 <ele>389.5</ele>
 <time>2020-03-24T13:28:26Z</time>
</trkpt>
<trkpt lat="35.022340" lon="135.806536">
 <ele>390.7</ele>
 <time>2020-03-24T13:28:26Z</time>
</trkpt>
<trkpt lat="35.022306" lon="135.806632">
 <ele>391.6</ele>
 <time>2020-03-24T13:28:26Z</time>
</trkpt>
<trkpt lat="35.022255" lon="135.806740">
 <ele>393.2</ele>
 <time>2020-03-24T13:28:26Z</time>
</trkpt>
<trkpt lat="35.022212" lon="135.806847">
 <ele>394</ele>
 <time>2020-03-24T13:28:26Z</time>
</trkpt>
<trkpt lat="35.022160" lon="135.806933">
 <ele>394.6</ele>
 <time>2020-03-24T13:28:26Z</time>
</trkpt>
<trkpt lat="35.022074" lon="135.806976">
 <ele>397.1</ele>
 <time>2020-03-24T13:28:26Z</time>
</trkpt>
<trkpt lat="35.021963" lon="135.807062">
 <ele>400</ele>
 <time>2020-03-24T13:28:27Z</time>
</trkpt>
<trkpt lat="35.021808" lon="135.807126">
 <ele>402.9</ele>
 <time>2020-03-24T13:28:27Z</time>
</trkpt>
<trkpt lat="35.021688" lon="135.807180">
 <ele>403.9</ele>
 <time>2020-03-24T13:28:27Z</time>
</trkpt>
<trkpt lat="35.021619" lon="135.807287">
 <ele>406</ele>
 <time>2020-03-24T13:28:27Z</time>
</trkpt>
<trkpt lat="35.021551" lon="135.807362">
 <ele>406.9</ele>
 <time>2020-03-24T13:28:27Z</time>
</trkpt>
<trkpt lat="35.021577" lon="135.807469">
 <ele>408.5</ele>
 <time>2020-03-24T13:28:27Z</time>
</trkpt>
<trkpt lat="35.021585" lon="135.807523">
 <ele>409.1</ele>
 <time>2020-03-24T13:28:27Z</time>
</trkpt>
<trkpt lat="35.021516" lon="135.807577">
 <ele>410.3</ele>
 <time>2020-03-24T13:28:27Z</time>
</trkpt>
<trkpt lat="35.021388" lon="135.807652">
 <ele>411.4</ele>
 <time>2020-03-24T13:28:28Z</time>
</trkpt>
<trkpt lat="35.021293" lon="135.807791">
 <ele>412.8</ele>
 <time>2020-03-24T13:28:28Z</time>
</trkpt>
<trkpt lat="35.021165" lon="135.807941">
 <ele>414.5</ele>
 <time>2020-03-24T13:28:28Z</time>
</trkpt>
<trkpt lat="35.021062" lon="135.808092">
 <ele>416</ele>
 <time>2020-03-24T13:28:28Z</time>
</trkpt>
<trkpt lat="35.020959" lon="135.808167">
 <ele>417</ele>
 <time>2020-03-24T13:28:28Z</time>
</trkpt>
<trkpt lat="35.020881" lon="135.808295">
 <ele>420</ele>
 <time>2020-03-24T13:28:28Z</time>
</trkpt>
<trkpt lat="35.020795" lon="135.808510">
 <ele>424.4</ele>
 <time>2020-03-24T13:28:28Z</time>
</trkpt>
<trkpt lat="35.020744" lon="135.808660">
 <ele>427.6</ele>
 <time>2020-03-24T13:28:29Z</time>
</trkpt>
<trkpt lat="35.020667" lon="135.808886">
 <ele>430.6</ele>
 <time>2020-03-24T13:28:29Z</time>
</trkpt>
<trkpt lat="35.020581" lon="135.809036">
 <ele>432.1</ele>
 <time>2020-03-24T13:28:29Z</time>
</trkpt>
<trkpt lat="35.020547" lon="135.809143">
 <ele>433.1</ele>
 <time>2020-03-24T13:28:29Z</time>
</trkpt>
<trkpt lat="35.020547" lon="135.809272">
 <ele>433.1</ele>
 <time>2020-03-24T13:28:29Z</time>
</trkpt>
<trkpt lat="35.020521" lon="135.809390">
 <ele>433.1</ele>
 <time>2020-03-24T13:28:29Z</time>
</trkpt>
<trkpt lat="35.020504" lon="135.809486">
 <ele>432.8</ele>
 <time>2020-03-24T13:28:29Z</time>
</trkpt>
<trkpt lat="35.020478" lon="135.809594">
 <ele>432.3</ele>
 <time>2020-03-24T13:28:29Z</time>
</trkpt>
<trkpt lat="35.020486" lon="135.809669">
 <ele>431.5</ele>
 <time>2020-03-24T13:28:30Z</time>
</trkpt>
<trkpt lat="35.020478" lon="135.809733">
 <ele>430.6</ele>
 <time>2020-03-24T13:28:30Z</time>
</trkpt>
<trkpt lat="35.020461" lon="135.809851">
 <ele>429.7</ele>
 <time>2020-03-24T13:28:30Z</time>
</trkpt>
<trkpt lat="35.020461" lon="135.809969">
 <ele>426.2</ele>
 <time>2020-03-24T13:28:30Z</time>
</trkpt>
<trkpt lat="35.020435" lon="135.810130">
 <ele>424.9</ele>
 <time>2020-03-24T13:28:30Z</time>
</trkpt>
<trkpt lat="35.020444" lon="135.810302">
 <ele>425</ele>
 <time>2020-03-24T13:28:30Z</time>
</trkpt>
<trkpt lat="35.020426" lon="135.810377">
 <ele>426.2</ele>
 <time>2020-03-24T13:28:30Z</time>
</trkpt>
<trkpt lat="35.020426" lon="135.810473">
 <ele>427.5</ele>
 <time>2020-03-24T13:28:30Z</time>
</trkpt>
<trkpt lat="35.020383" lon="135.810699">
 <ele>431.2</ele>
 <time>2020-03-24T13:28:31Z</time>
</trkpt>
<trkpt lat="35.020289" lon="135.810870">
 <ele>436.9</ele>
 <time>2020-03-24T13:28:31Z</time>
</trkpt>
<trkpt lat="35.020212" lon="135.810978">
 <ele>441.5</ele>
 <time>2020-03-24T13:28:31Z</time>
</trkpt>
<trkpt lat="35.020083" lon="135.811096">
 <ele>445.9</ele>
 <time>2020-03-24T13:28:31Z</time>
</trkpt>
<trkpt lat="35.019937" lon="135.811214">
 <ele>450.6</ele>
 <time>2020-03-24T13:28:31Z</time>
</trkpt>
<trkpt lat="35.019843" lon="135.811332">
 <ele>454.5</ele>
 <time>2020-03-24T13:28:31Z</time>
</trkpt>
<trkpt lat="35.019783" lon="135.811428">
 <ele>457.3</ele>
 <time>2020-03-24T13:28:31Z</time>
</trkpt>
<trkpt lat="35.019723" lon="135.811525">
 <ele>460.2</ele>
 <time>2020-03-24T13:28:31Z</time>
</trkpt>
<trkpt lat="35.019656" lon="135.811703">
 <ele>464.7</ele>
 <time>2020-03-24T13:28:32Z</time>
</trkpt>
<trkpt lat="35.019723" lon="135.811525">
 <ele>460.2</ele>
 <time>2020-03-24T13:28:32Z</time>
</trkpt>
<trkpt lat="35.019783" lon="135.811428">
 <ele>457.3</ele>
 <time>2020-03-24T13:28:32Z</time>
</trkpt>
<trkpt lat="35.019843" lon="135.811332">
 <ele>454.5</ele>
 <time>2020-03-24T13:28:32Z</time>
</trkpt>
<trkpt lat="35.019937" lon="135.811214">
 <ele>450.6</ele>
 <time>2020-03-24T13:28:32Z</time>
</trkpt>
<trkpt lat="35.020083" lon="135.811096">
 <ele>445.9</ele>
 <time>2020-03-24T13:28:32Z</time>
</trkpt>
<trkpt lat="35.020212" lon="135.810978">
 <ele>441.5</ele>
 <time>2020-03-24T13:28:32Z</time>
</trkpt>
<trkpt lat="35.020289" lon="135.810870">
 <ele>436.9</ele>
 <time>2020-03-24T13:28:32Z</time>
</trkpt>
<trkpt lat="35.020383" lon="135.810699">
 <ele>431.2</ele>
 <time>2020-03-24T13:28:33Z</time>
</trkpt>
<trkpt lat="35.020426" lon="135.810473">
 <ele>427.5</ele>
 <time>2020-03-24T13:28:33Z</time>
</trkpt>
<trkpt lat="35.020426" lon="135.810377">
 <ele>426.2</ele>
 <time>2020-03-24T13:28:33Z</time>
</trkpt>
<trkpt lat="35.020444" lon="135.810302">
 <ele>425</ele>
 <time>2020-03-24T13:28:33Z</time>
</trkpt>
<trkpt lat="35.020435" lon="135.810130">
 <ele>424.9</ele>
 <time>2020-03-24T13:28:33Z</time>
</trkpt>
<trkpt lat="35.020461" lon="135.809969">
 <ele>426.2</ele>
 <time>2020-03-24T13:28:33Z</time>
</trkpt>
<trkpt lat="35.020461" lon="135.809851">
 <ele>429.7</ele>
 <time>2020-03-24T13:28:33Z</time>
</trkpt>
<trkpt lat="35.020478" lon="135.809733">
 <ele>430.6</ele>
 <time>2020-03-24T13:28:33Z</time>
</trkpt>
<trkpt lat="35.020486" lon="135.809669">
 <ele>431.5</ele>
 <time>2020-03-24T13:28:34Z</time>
</trkpt>
<trkpt lat="35.020478" lon="135.809594">
 <ele>432.3</ele>
 <time>2020-03-24T13:28:34Z</time>
</trkpt>
<trkpt lat="35.020504" lon="135.809486">
 <ele>432.8</ele>
 <time>2020-03-24T13:28:34Z</time>
</trkpt>
<trkpt lat="35.020521" lon="135.809390">
 <ele>433.1</ele>
 <time>2020-03-24T13:28:34Z</time>
</trkpt>
<trkpt lat="35.020547" lon="135.809272">
 <ele>433.1</ele>
 <time>2020-03-24T13:28:34Z</time>
</trkpt>
<trkpt lat="35.020547" lon="135.809143">
 <ele>433.1</ele>
 <time>2020-03-24T13:28:34Z</time>
</trkpt>
<trkpt lat="35.020581" lon="135.809036">
 <ele>432.1</ele>
 <time>2020-03-24T13:28:34Z</time>
</trkpt>
<trkpt lat="35.020667" lon="135.808886">
 <ele>430.6</ele>
 <time>2020-03-24T13:28:34Z</time>
</trkpt>
<trkpt lat="35.020744" lon="135.808660">
 <ele>427.6</ele>
 <time>2020-03-24T13:28:35Z</time>
</trkpt>
<trkpt lat="35.020795" lon="135.808510">
 <ele>424.4</ele>
 <time>2020-03-24T13:28:35Z</time>
</trkpt>
<trkpt lat="35.020881" lon="135.808295">
 <ele>420</ele>
 <time>2020-03-24T13:28:35Z</time>
</trkpt>
<trkpt lat="35.020959" lon="135.808167">
 <ele>417</ele>
 <time>2020-03-24T13:28:35Z</time>
</trkpt>
<trkpt lat="35.021062" lon="135.808092">
 <ele>416</ele>
 <time>2020-03-24T13:28:35Z</time>
</trkpt>
<trkpt lat="35.021165" lon="135.807941">
 <ele>414.5</ele>
 <time>2020-03-24T13:28:35Z</time>
</trkpt>
<trkpt lat="35.021293" lon="135.807791">
 <ele>412.8</ele>
 <time>2020-03-24T13:28:35Z</time>
</trkpt>
<trkpt lat="35.021388" lon="135.807652">
 <ele>411.4</ele>
 <time>2020-03-24T13:28:36Z</time>
</trkpt>
<trkpt lat="35.021516" lon="135.807577">
 <ele>410.3</ele>
 <time>2020-03-24T13:28:36Z</time>
</trkpt>
<trkpt lat="35.021585" lon="135.807523">
 <ele>409.1</ele>
 <time>2020-03-24T13:28:36Z</time>
</trkpt>
<trkpt lat="35.021577" lon="135.807469">
 <ele>408.5</ele>
 <time>2020-03-24T13:28:36Z</time>
</trkpt>
<trkpt lat="35.021551" lon="135.807362">
 <ele>406.9</ele>
 <time>2020-03-24T13:28:36Z</time>
</trkpt>
<trkpt lat="35.021619" lon="135.807287">
 <ele>406</ele>
 <time>2020-03-24T13:28:36Z</time>
</trkpt>
<trkpt lat="35.021688" lon="135.807180">
 <ele>403.9</ele>
 <time>2020-03-24T13:28:36Z</time>
</trkpt>
<trkpt lat="35.021808" lon="135.807126">
 <ele>402.9</ele>
 <time>2020-03-24T13:28:36Z</time>
</trkpt>
<trkpt lat="35.021963" lon="135.807062">
 <ele>400</ele>
 <time>2020-03-24T13:28:37Z</time>
</trkpt>
<trkpt lat="35.022074" lon="135.806976">
 <ele>397.1</ele>
 <time>2020-03-24T13:28:37Z</time>
</trkpt>
<trkpt lat="35.022160" lon="135.806933">
 <ele>394.6</ele>
 <time>2020-03-24T13:28:37Z</time>
</trkpt>
<trkpt lat="35.022212" lon="135.806847">
 <ele>394</ele>
 <time>2020-03-24T13:28:37Z</time>
</trkpt>
<trkpt lat="35.022255" lon="135.806740">
 <ele>393.2</ele>
 <time>2020-03-24T13:28:37Z</time>
</trkpt>
<trkpt lat="35.022306" lon="135.806632">
 <ele>391.6</ele>
 <time>2020-03-24T13:28:37Z</time>
</trkpt>
<trkpt lat="35.022340" lon="135.806536">
 <ele>390.7</ele>
 <time>2020-03-24T13:28:37Z</time>
</trkpt>
<trkpt lat="35.022375" lon="135.806439">
 <ele>389.5</ele>
 <time>2020-03-24T13:28:37Z</time>
</trkpt>
<trkpt lat="35.022383" lon="135.806386">
 <ele>389.3</ele>
 <time>2020-03-24T13:28:38Z</time>
</trkpt>
<trkpt lat="35.022392" lon="135.806300">
 <ele>388.5</ele>
 <time>2020-03-24T13:28:38Z</time>
</trkpt>
<trkpt lat="35.022400" lon="135.806236">
 <ele>387.6</ele>
 <time>2020-03-24T13:28:38Z</time>
</trkpt>
<trkpt lat="35.022409" lon="135.806150">
 <ele>385.9</ele>
 <time>2020-03-24T13:28:38Z</time>
</trkpt>
<trkpt lat="35.022418" lon="135.806010">
 <ele>384.9</ele>
 <time>2020-03-24T13:28:38Z</time>
</trkpt>
<trkpt lat="35.022426" lon="135.805924">
 <ele>384</ele>
 <time>2020-03-24T13:28:38Z</time>
</trkpt>
<trkpt lat="35.022503" lon="135.805763">
 <ele>381.5</ele>
 <time>2020-03-24T13:28:38Z</time>
</trkpt>
<trkpt lat="35.022546" lon="135.805656">
 <ele>380.2</ele>
 <time>2020-03-24T13:28:38Z</time>
</trkpt>
<trkpt lat="35.022555" lon="135.805549">
 <ele>377</ele>
 <time>2020-03-24T13:28:39Z</time>
</trkpt>
<trkpt lat="35.022564" lon="135.805485">
 <ele>376</ele>
 <time>2020-03-24T13:28:39Z</time>
</trkpt>
<trkpt lat="35.022564" lon="135.805388">
 <ele>373</ele>
 <time>2020-03-24T13:28:39Z</time>
</trkpt>
<trkpt lat="35.022624" lon="135.805281">
 <ele>370.5</ele>
 <time>2020-03-24T13:28:39Z</time>
</trkpt>
<trkpt lat="35.022684" lon="135.805195">
 <ele>368</ele>
 <time>2020-03-24T13:28:39Z</time>
</trkpt>
<trkpt lat="35.022744" lon="135.805066">
 <ele>365.2</ele>
 <time>2020-03-24T13:28:39Z</time>
</trkpt>
<trkpt lat="35.022770" lon="135.805002">
 <ele>363.7</ele>
 <time>2020-03-24T13:28:39Z</time>
</trkpt>
<trkpt lat="35.022752" lon="135.804905">
 <ele>362.5</ele>
 <time>2020-03-24T13:28:40Z</time>
</trkpt>
<trkpt lat="35.022812" lon="135.804766">
 <ele>359.2</ele>
 <time>2020-03-24T13:28:40Z</time>
</trkpt>
<trkpt lat="35.022907" lon="135.804594">
 <ele>350.5</ele>
 <time>2020-03-24T13:28:40Z</time>
</trkpt>
<trkpt lat="35.023044" lon="135.804337">
 <ele>334.5</ele>
 <time>2020-03-24T13:28:40Z</time>
</trkpt>
<trkpt lat="35.023130" lon="135.804379">
 <ele>334</ele>
 <time>2020-03-24T13:28:40Z</time>
</trkpt>
<trkpt lat="35.023285" lon="135.804615">
 <ele>332</ele>
 <time>2020-03-24T13:28:40Z</time>
</trkpt>
<trkpt lat="35.023362" lon="135.804626">
 <ele>330.6</ele>
 <time>2020-03-24T13:28:40Z</time>
</trkpt>
<trkpt lat="35.023491" lon="135.804637">
 <ele>327.6</ele>
 <time>2020-03-24T13:28:40Z</time>
</trkpt>
<trkpt lat="35.023576" lon="135.804615">
 <ele>324.5</ele>
 <time>2020-03-24T13:28:41Z</time>
</trkpt>
<trkpt lat="35.023688" lon="135.804562">
 <ele>322</ele>
 <time>2020-03-24T13:28:41Z</time>
</trkpt>
<trkpt lat="35.023791" lon="135.804508">
 <ele>319.1</ele>
 <time>2020-03-24T13:28:41Z</time>
</trkpt>
<trkpt lat="35.023903" lon="135.804412">
 <ele>314.6</ele>
 <time>2020-03-24T13:28:41Z</time>
</trkpt>
<trkpt lat="35.023980" lon="135.804261">
 <ele>308.9</ele>
 <time>2020-03-24T13:28:41Z</time>
</trkpt>
<trkpt lat="35.024048" lon="135.804143">
 <ele>302.8</ele>
 <time>2020-03-24T13:28:41Z</time>
</trkpt>
<trkpt lat="35.024126" lon="135.804100">
 <ele>300.3</ele>
 <time>2020-03-24T13:28:41Z</time>
</trkpt>
<trkpt lat="35.024246" lon="135.804100">
 <ele>297</ele>
 <time>2020-03-24T13:28:41Z</time>
</trkpt>
<trkpt lat="35.024469" lon="135.804090">
 <ele>289.2</ele>
 <time>2020-03-24T13:28:42Z</time>
</trkpt>
<trkpt lat="35.024598" lon="135.804111">
 <ele>282.3</ele>
 <time>2020-03-24T13:28:42Z</time>
</trkpt>
<trkpt lat="35.024701" lon="135.804133">
 <ele>276.1</ele>
 <time>2020-03-24T13:28:42Z</time>
</trkpt>
<trkpt lat="35.024830" lon="135.804133">
 <ele>269.7</ele>
 <time>2020-03-24T13:28:42Z</time>
</trkpt>
<trkpt lat="35.024890" lon="135.804090">
 <ele>264.9</ele>
 <time>2020-03-24T13:28:42Z</time>
</trkpt>
<trkpt lat="35.024898" lon="135.803993">
 <ele>264.6</ele>
 <time>2020-03-24T13:28:42Z</time>
</trkpt>
<trkpt lat="35.024864" lon="135.803907">
 <ele>265.9</ele>
 <time>2020-03-24T13:28:42Z</time>
</trkpt>
<trkpt lat="35.024787" lon="135.803811">
 <ele>267.6</ele>
 <time>2020-03-24T13:28:43Z</time>
</trkpt>
<trkpt lat="35.024709" lon="135.803736">
 <ele>267.7</ele>
 <time>2020-03-24T13:28:43Z</time>
</trkpt>
<trkpt lat="35.024598" lon="135.803650">
 <ele>267.4</ele>
 <time>2020-03-24T13:28:43Z</time>
</trkpt>
<trkpt lat="35.024469" lon="135.803510">
 <ele>264.9</ele>
 <time>2020-03-24T13:28:43Z</time>
</trkpt>
<trkpt lat="35.024297" lon="135.803317">
 <ele>260.3</ele>
 <time>2020-03-24T13:28:43Z</time>
</trkpt>
<trkpt lat="35.024212" lon="135.803167">
 <ele>258.3</ele>
 <time>2020-03-24T13:28:43Z</time>
</trkpt>
<trkpt lat="35.024117" lon="135.803017">
 <ele>257.1</ele>
 <time>2020-03-24T13:28:43Z</time>
</trkpt>
<trkpt lat="35.024263" lon="135.803028">
 <ele>254.6</ele>
 <time>2020-03-24T13:28:43Z</time>
</trkpt>
<trkpt lat="35.024366" lon="135.803071">
 <ele>253.1</ele>
 <time>2020-03-24T13:28:44Z</time>
</trkpt>
<trkpt lat="35.024512" lon="135.803167">
 <ele>251.6</ele>
 <time>2020-03-24T13:28:44Z</time>
</trkpt>
<trkpt lat="35.024701" lon="135.803199">
 <ele>244.9</ele>
 <time>2020-03-24T13:28:44Z</time>
</trkpt>
<trkpt lat="35.024907" lon="135.803242">
 <ele>240.8</ele>
 <time>2020-03-24T13:28:44Z</time>
</trkpt>
<trkpt lat="35.025147" lon="135.803210">
 <ele>236.2</ele>
 <time>2020-03-24T13:28:44Z</time>
</trkpt>
<trkpt lat="35.025250" lon="135.803178">
 <ele>233.2</ele>
 <time>2020-03-24T13:28:44Z</time>
</trkpt>
<trkpt lat="35.025396" lon="135.803103">
 <ele>226.8</ele>
 <time>2020-03-24T13:28:44Z</time>
</trkpt>
<trkpt lat="35.025516" lon="135.802942">
 <ele>218.2</ele>
 <time>2020-03-24T13:28:44Z</time>
</trkpt>
<trkpt lat="35.025851" lon="135.802534">
 <ele>199.3</ele>
 <time>2020-03-24T13:28:45Z</time>
</trkpt>
<trkpt lat="35.026031" lon="135.802459">
 <ele>194.2</ele>
 <time>2020-03-24T13:28:45Z</time>
</trkpt>
<trkpt lat="35.026246" lon="135.802384">
 <ele>190</ele>
 <time>2020-03-24T13:28:45Z</time>
</trkpt>
<trkpt lat="35.026435" lon="135.802352">
 <ele>185.4</ele>
 <time>2020-03-24T13:28:45Z</time>
</trkpt>
<trkpt lat="35.026563" lon="135.802330">
 <ele>179.8</ele>
 <time>2020-03-24T13:28:45Z</time>
</trkpt>
<trkpt lat="35.026632" lon="135.802287">
 <ele>176.9</ele>
 <time>2020-03-24T13:28:45Z</time>
</trkpt>
<trkpt lat="35.026675" lon="135.802212">
 <ele>175.5</ele>
 <time>2020-03-24T13:28:45Z</time>
</trkpt>
<trkpt lat="35.026752" lon="135.802244">
 <ele>172.5</ele>
 <time>2020-03-24T13:28:45Z</time>
</trkpt>
<trkpt lat="35.026769" lon="135.802352">
 <ele>170.7</ele>
 <time>2020-03-24T13:28:46Z</time>
</trkpt>
<trkpt lat="35.026812" lon="135.802427">
 <ele>169.4</ele>
 <time>2020-03-24T13:28:46Z</time>
</trkpt>
<trkpt lat="35.026864" lon="135.802427">
 <ele>168.8</ele>
 <time>2020-03-24T13:28:46Z</time>
</trkpt>
<trkpt lat="35.026967" lon="135.802362">
 <ele>166.4</ele>
 <time>2020-03-24T13:28:46Z</time>
</trkpt>
<trkpt lat="35.027121" lon="135.802201">
 <ele>160.2</ele>
 <time>2020-03-24T13:28:46Z</time>
</trkpt>
<trkpt lat="35.027396" lon="135.801933">
 <ele>153.4</ele>
 <time>2020-03-24T13:28:46Z</time>
</trkpt>
<trkpt lat="35.027473" lon="135.801933">
 <ele>152.7</ele>
 <time>2020-03-24T13:28:46Z</time>
</trkpt>
<trkpt lat="35.027619" lon="135.801933">
 <ele>151</ele>
 <time>2020-03-24T13:28:46Z</time>
</trkpt>
<trkpt lat="35.027748" lon="135.801933">
 <ele>148.9</ele>
 <time>2020-03-24T13:28:47Z</time>
</trkpt>
<trkpt lat="35.027816" lon="135.801805">
 <ele>148.3</ele>
 <time>2020-03-24T13:28:47Z</time>
</trkpt>
<trkpt lat="35.027902" lon="135.801633">
 <ele>145.7</ele>
 <time>2020-03-24T13:28:47Z</time>
</trkpt>
<trkpt lat="35.027971" lon="135.801461">
 <ele>142.3</ele>
 <time>2020-03-24T13:28:47Z</time>
</trkpt>
<trkpt lat="35.028031" lon="135.801236">
 <ele>137.1</ele>
 <time>2020-03-24T13:28:47Z</time>
</trkpt>
<trkpt lat="35.028031" lon="135.801161">
 <ele>135.7</ele>
 <time>2020-03-24T13:28:47Z</time>
</trkpt>
<trkpt lat="35.028031" lon="135.801021">
 <ele>133.9</ele>
 <time>2020-03-24T13:28:47Z</time>
</trkpt>
<trkpt lat="35.028014" lon="135.800946">
 <ele>132.5</ele>
 <time>2020-03-24T13:28:48Z</time>
</trkpt>
<trkpt lat="35.027988" lon="135.800828">
 <ele>130.6</ele>
 <time>2020-03-24T13:28:48Z</time>
</trkpt>
<trkpt lat="35.027954" lon="135.800732">
 <ele>129.8</ele>
 <time>2020-03-24T13:28:48Z</time>
</trkpt>
<trkpt lat="35.027962" lon="135.800592">
 <ele>127</ele>
 <time>2020-03-24T13:28:48Z</time>
</trkpt>
<trkpt lat="35.027945" lon="135.800506">
 <ele>126.3</ele>
 <time>2020-03-24T13:28:48Z</time>
</trkpt>
<trkpt lat="35.027945" lon="135.800431">
 <ele>124.9</ele>
 <time>2020-03-24T13:28:48Z</time>
</trkpt>
<trkpt lat="35.027919" lon="135.800302">
 <ele>123.6</ele>
 <time>2020-03-24T13:28:48Z</time>
</trkpt>
<trkpt lat="35.027902" lon="135.800163">
 <ele>120.6</ele>
 <time>2020-03-24T13:28:48Z</time>
</trkpt>
<trkpt lat="35.027911" lon="135.800077">
 <ele>118.9</ele>
 <time>2020-03-24T13:28:49Z</time>
</trkpt>
<trkpt lat="35.027894" lon="135.799938">
 <ele>114.7</ele>
 <time>2020-03-24T13:28:49Z</time>
</trkpt>
<trkpt lat="35.027885" lon="135.799659">
 <ele>111</ele>
 <time>2020-03-24T13:28:49Z</time>
</trkpt>
<trkpt lat="35.027902" lon="135.799584">
 <ele>111.1</ele>
 <time>2020-03-24T13:28:49Z</time>
</trkpt>
<trkpt lat="35.027911" lon="135.799509">
 <ele>110.6</ele>
 <time>2020-03-24T13:28:49Z</time>
</trkpt>
<trkpt lat="35.027945" lon="135.799391">
 <ele>109.6</ele>
 <time>2020-03-24T13:28:49Z</time>
</trkpt>
<trkpt lat="35.027945" lon="135.799273">
 <ele>107.7</ele>
 <time>2020-03-24T13:28:49Z</time>
</trkpt>
<trkpt lat="35.027988" lon="135.799144">
 <ele>106.7</ele>
 <time>2020-03-24T13:28:49Z</time>
</trkpt>
<trkpt lat="35.027997" lon="135.798994">
 <ele>105.1</ele>
 <time>2020-03-24T13:28:49Z</time>
</trkpt>
<trkpt lat="35.027997" lon="135.798854">
 <ele>104.1</ele>
 <time>2020-03-24T13:28:49Z</time>
</trkpt>
<trkpt lat="35.027997" lon="135.798779">
 <ele>103.5</ele>
 <time>2020-03-24T13:28:50Z</time>
</trkpt>
<trkpt lat="35.027979" lon="135.798672">
 <ele>101.7</ele>
 <time>2020-03-24T13:28:50Z</time>
</trkpt>
<trkpt lat="35.027979" lon="135.798575">
 <ele>100.8</ele>
 <time>2020-03-24T13:28:50Z</time>
</trkpt>
<trkpt lat="35.027971" lon="135.798479">
 <ele>99.8</ele>
 <time>2020-03-24T13:28:50Z</time>
</trkpt>
<trkpt lat="35.027971" lon="135.798253">
 <ele>98.1</ele>
 <time>2020-03-24T13:28:50Z</time>
</trkpt>
<trkpt lat="35.027988" lon="135.798200">
 <ele>97.8</ele>
 <time>2020-03-24T13:28:50Z</time>
</trkpt>
<trkpt lat="35.027988" lon="135.798167">
 <ele>98</ele>
 <time>2020-03-24T13:28:50Z</time>
</trkpt>
<trkpt lat="35.027979" lon="135.798125">
 <ele>98.9</ele>
 <time>2020-03-24T13:28:50Z</time>
</trkpt>
<trkpt lat="35.027919" lon="135.798071">
 <ele>97.2</ele>
 <time>2020-03-24T13:28:50Z</time>
</trkpt>
<trkpt lat="35.027834" lon="135.797985">
 <ele>95.6</ele>
 <time>2020-03-24T13:28:50Z</time>
</trkpt>
<trkpt lat="35.027825" lon="135.797899">
 <ele>94.9</ele>
 <time>2020-03-24T13:28:51Z</time>
</trkpt>
<trkpt lat="35.027825" lon="135.797792">
 <ele>93.2</ele>
 <time>2020-03-24T13:28:51Z</time>
</trkpt>
<trkpt lat="35.027851" lon="135.797770">
 <ele>93.2</ele>
 <time>2020-03-24T13:28:51Z</time>
</trkpt>
<trkpt lat="35.027851" lon="135.797706">
 <ele>92.7</ele>
 <time>2020-03-24T13:28:51Z</time>
</trkpt>
<trkpt lat="35.027799" lon="135.797631">
 <ele>92.2</ele>
 <time>2020-03-24T13:28:51Z</time>
</trkpt>
<trkpt lat="35.027739" lon="135.797459">
 <ele>91.2</ele>
 <time>2020-03-24T13:28:51Z</time>
</trkpt>
<trkpt lat="35.027670" lon="135.797277">
 <ele>89.4</ele>
 <time>2020-03-24T13:28:51Z</time>
</trkpt>
<trkpt lat="35.027507" lon="135.797266">
 <ele>88.8</ele>
 <time>2020-03-24T13:28:51Z</time>
</trkpt>
<trkpt lat="35.027207" lon="135.797266">
 <ele>87.2</ele>
 <time>2020-03-24T13:28:51Z</time>
</trkpt>
<trkpt lat="35.027190" lon="135.797180">
 <ele>86.6</ele>
 <time>2020-03-24T13:28:52Z</time>
</trkpt>
<trkpt lat="35.027190" lon="135.796547">
 <ele>82.7</ele>
 <time>2020-03-24T13:28:52Z</time>
</trkpt>
<trkpt lat="35.027190" lon="135.795668">
 <ele>78</ele>
 <time>2020-03-24T13:28:52Z</time>
</trkpt>
</trkseg>
</trk>
</gpx>

